| time (UTC) | temp F | wind direction | speed knots | gust knots | rain 1hr in | rain 24hr in | rain mn in | humidity % | barometer mb |
| 20260504234547 | 64 | 248 | 0.9 | 3.5 | 0.00 | 0.00 | 0.00 | 34 | 1005.9 |
| 20260504233055 | 65 | 249 | 1.7 | 5.2 | 0.00 | 0.00 | 0.00 | 33 | 1005.9 |
| 20260504231541 | 66 | 0 | 1.7 | 10.4 | 0.00 | 0.00 | 0.00 | 32 | 1005.7 |
| 20260504230047 | 67 | 215 | 4.3 | 8.7 | 0.00 | 0.00 | 0.00 | 29 | 1005.3 |
| 20260504224546 | 67 | 246 | 4.3 | 7.8 | 0.00 | 0.00 | 0.00 | 30 | 1005.3 |
| 20260504223049 | 67 | 212 | 4.3 | 10.4 | 0.00 | 0.00 | 0.00 | 30 | 1005.2 |
| 20260504221547 | 67 | 269 | 7.0 | 14.8 | 0.00 | 0.00 | 0.00 | 28 | 1005.1 |
| 20260504220104 | 68 | 269 | 8.7 | 15.6 | 0.00 | 0.00 | 0.00 | 27 | 1005.1 |
| 20260504214547 | 69 | 282 | 7.0 | 13.9 | 0.00 | 0.00 | 0.00 | 27 | 1005.1 |
| 20260504213050 | 69 | 306 | 6.1 | 14.8 | 0.00 | 0.00 | 0.00 | 30 | 1005.0 |
| 20260504211541 | 69 | 271 | 8.7 | 16.5 | 0.00 | 0.00 | 0.00 | 27 | 1005.0 |
| 20260504210049 | 69 | 273 | 8.7 | 17.4 | 0.00 | 0.00 | 0.00 | 27 | 1004.9 |
| 20260504204557 | 69 | 281 | 5.2 | 13.9 | 0.00 | 0.00 | 0.00 | 31 | 1004.8 |
| 20260504203046 | 68 | 266 | 7.0 | 14.8 | 0.00 | 0.00 | 0.00 | 30 | 1004.7 |
| 20260504201551 | 67 | 256 | 7.8 | 18.2 | 0.00 | 0.00 | 0.00 | 29 | 1004.7 |
| 20260504200053 | 67 | 241 | 8.7 | 15.6 | 0.00 | 0.00 | 0.00 | 30 | 1004.7 |
| 20260504194549 | 68 | 306 | 7.0 | 15.6 | 0.00 | 0.00 | 0.00 | 31 | 1004.9 |
| 20260504193047 | 68 | 286 | 7.0 | 17.4 | 0.00 | 0.00 | 0.00 | 27 | 1004.9 |
| 20260504191545 | 68 | 268 | 4.3 | 16.5 | 0.00 | 0.00 | 0.00 | 36 | 1005.0 |
| 20260504190044 | 66 | 315 | 7.8 | 16.5 | 0.00 | 0.00 | 0.00 | 31 | 1005.1 |
| 20260504184540 | 65 | 281 | 9.6 | 18.2 | 0.00 | 0.00 | 0.00 | 30 | 1005.1 |
| 20260504183040 | 67 | 279 | 8.7 | 22.6 | 0.00 | 0.00 | 0.00 | 29 | 1005.1 |
| 20260504181552 | 67 | 252 | 11.3 | 22.6 | 0.00 | 0.00 | 0.00 | 27 | 1005.0 |
| 20260504180050 | 68 | 239 | 7.0 | 20.9 | 0.00 | 0.00 | 0.00 | 30 | 1004.9 |
| 20260504174546 | 65 | 263 | 10.4 | 21.7 | 0.00 | 0.00 | 0.00 | 30 | 1005.0 |
| 20260504173050 | 65 | 252 | 10.4 | 21.7 | 0.00 | 0.00 | 0.00 | 30 | 1005.2 |
| 20260504171548 | 66 | 309 | 13.0 | 20.0 | 0.00 | 0.00 | 0.00 | 28 | 1005.1 |
| 20260504081549 | 41 | 257 | 2.6 | 6.1 | 0.00 | 0.00 | 0.00 | 57 | 1008.5 |
| 20260504044545 | 38 | 250 | 1.7 | 7.8 | 0.00 | 0.00 | 0.00 | 62 | 1008.3 |
| 20260504043055 | 38 | 259 | 3.5 | 7.8 | 0.00 | 0.00 | 0.00 | 61 | 1008.2 |
| 20260504041544 | 39 | 201 | 4.3 | 7.0 | 0.00 | 0.00 | 0.00 | 61 | 1008.1 |
| 20260504040046 | 39 | 234 | 2.6 | 7.8 | 0.00 | 0.00 | 0.00 | 61 | 1008.1 |
| 20260504034549 | 39 | 257 | 2.6 | 7.0 | 0.00 | 0.00 | 0.00 | 60 | 1008.0 |
| 20260504033048 | 41 | 264 | 1.7 | 7.8 | 0.00 | 0.00 | 0.00 | 56 | 1007.9 |
| 20260504031546 | 43 | 242 | 3.5 | 8.7 | 0.00 | 0.00 | 0.00 | 51 | 1007.8 |
| 20260504030047 | 43 | 288 | 2.6 | 7.0 | 0.00 | 0.00 | 0.00 | 51 | 1007.7 |
| 20260504024548 | 43 | 273 | 2.6 | 8.7 | 0.00 | 0.00 | 0.00 | 51 | 1007.7 |
| 20260504023049 | 42 | 284 | 3.5 | 7.8 | 0.00 | 0.00 | 0.00 | 53 | 1007.7 |
| 20260504021547 | 41 | 293 | 1.7 | 4.3 | 0.00 | 0.00 | 0.00 | 56 | 1007.7 |
| 20260504020125 | 41 | 290 | 0.0 | 3.5 | 0.00 | 0.00 | 0.00 | 56 | 1007.7 |
| 20260504014559 | 41 | 242 | 0.9 | 2.6 | 0.00 | 0.02 | 0.00 | 57 | 1007.8 |
| 20260504013055 | 42 | 271 | 0.9 | 3.5 | 0.00 | 0.02 | 0.00 | 53 | 1007.8 |
| 20260504011546 | 42 | 317 | 1.7 | 6.1 | 0.00 | 0.02 | 0.00 | 54 | 1007.6 |
| 20260504010048 | 42 | 263 | 1.7 | 6.1 | 0.00 | 0.02 | 0.00 | 54 | 1007.4 |
| 20260504004618 | 43 | 270 | 3.5 | 7.8 | 0.00 | 0.06 | 0.00 | 50 | 1007.2 |
| 20260504003051 | 44 | 257 | 4.3 | 8.7 | 0.00 | 0.06 | 0.00 | 50 | 1007.0 |
| 20260504001617 | 44 | 273 | 3.5 | 7.0 | 0.00 | 0.06 | 0.00 | 50 | 1006.9 |
| 20260504000049 | 45 | 310 | 3.5 | 8.7 | 0.00 | 0.06 | 0.00 | 47 | 1006.6 |